SB KEPS @ AMSAT $ORB12082.O Orbital Elements 12082.OSCAR
HR AMSAT ORBITAL ELEMENTS FOR OSCAR SATELLITES FROM WA5QGD FORT WORTH,TX March 22, 2012 Send SUBSCRIBE KEPS/UNSUBSCRIBE KEPS to [email protected] only BID: ORB12082.O TO ALL RADIO AMATEURS BT
Satellite: AO-07 Catalog number: 07530 Epoch time: 12082.63613545 Element set: 337 Inclination: 101.4020 deg RA of node: 083.1963 deg Eccentricity: 0.0012119 Arg of perigee: 092.0812 deg Mean anomaly: 268.1648 deg Mean motion: 12.53588272 rev/day Decay rate: -2.7e-07 rev/day^2 Epoch rev: 70920 Checksum: 272
Satellite: FO-29 Catalog number: 24278 Epoch time: 12081.92334778 Element set: 0809 Inclination: 098.5763 deg RA of node: 194.0205 deg Eccentricity: 0.0349631 Arg of perigee: 255.2547 deg Mean anomaly: 100.9609 deg Mean motion: 13.52978999 rev/day Decay rate: 3.3e-07 rev/day^2 Epoch rev: 77015 Checksum: 345
Satellite: SO-33 Catalog number: 25509 Epoch time: 12081.43849982 Element set: 190 Inclination: 031.4318 deg RA of node: 110.2376 deg Eccentricity: 0.0352671 Arg of perigee: 155.5701 deg Mean anomaly: 206.2080 deg Mean motion: 14.28685407 rev/day Decay rate: 3.87e-06 rev/day^2 Epoch rev: 70009 Checksum: 291
Satellite: RS-22 Catalog number: 27939 Epoch time: 12082.74272770 Element set: 195 Inclination: 097.8191 deg RA of node: 287.9622 deg Eccentricity: 0.0013445 Arg of perigee: 174.8036 deg Mean anomaly: 185.3308 deg Mean motion: 14.63940536 rev/day Decay rate: 4.24e-06 rev/day^2 Epoch rev: 45323 Checksum: 321
Satellite: VO-52 Catalog number: 28650 Epoch time: 12081.60301227 Element set: 55 Inclination: 097.6074 deg RA of node: 116.8145 deg Eccentricity: 0.0025942 Arg of perigee: 331.1591 deg Mean anomaly: 028.8198 deg Mean motion: 14.82761585 rev/day Decay rate: 1.331e-05 rev/day^2 Epoch rev: 37199 Checksum: 304
Satellite: HO-68 Catalog number: 36122 Epoch time: 12082.79498358 Element set: 308 Inclination: 100.3715 deg RA of node: 143.8516 deg Eccentricity: 0.0007116 Arg of perigee: 308.1698 deg Mean anomaly: 051.8774 deg Mean motion: 13.16294081 rev/day Decay rate: -4.4e-07 rev/day^2 Epoch rev: 10902 Checksum: 299
/EX SB KEPS @ AMSAT $ORB12082.D Orbital Elements 12082.MICROS
HR AMSAT ORBITAL ELEMENTS FOR THE MICROSATS FROM WA5QGD FORT WORTH,TX March 22, 2012 Send SUBSCRIBE KEPS/UNSUBSCRIBE KEPS to [email protected] only BID: ORB12082.D TO ALL RADIO AMATEURS BT
Satellite: UO-11 Catalog number: 14781 Epoch time: 12082.80836994 Element set: 820 Inclination: 097.9655 deg RA of node: 143.0508 deg Eccentricity: 0.0008208 Arg of perigee: 319.3322 deg Mean anomaly: 040.7271 deg Mean motion: 14.80354244 rev/day Decay rate: 5.68e-06 rev/day^2 Epoch rev: 50715 Checksum: 299
Satellite: AO-16 Catalog number: 20439 Epoch time: 12081.95909661 Element set: 0425 Inclination: 098.4216 deg RA of node: 027.8134 deg Eccentricity: 0.0011879 Arg of perigee: 058.6959 deg Mean anomaly: 301.5383 deg Mean motion: 14.32029119 rev/day Decay rate: 1.45e-06 rev/day^2 Epoch rev: 15751 Checksum: 310
Satellite: LO-19 Catalog number: 20442 Epoch time: 12081.85566204 Element set: 0362 Inclination: 098.3872 deg RA of node: 031.0278 deg Eccentricity: 0.0012813 Arg of perigee: 052.1026 deg Mean anomaly: 308.1312 deg Mean motion: 14.32248810 rev/day Decay rate: 3.8e-07 rev/day^2 Epoch rev: 15768 Checksum: 270
Satellite: AO-27 Catalog number: 22825 Epoch time: 12082.86988640 Element set: 60 Inclination: 098.5665 deg RA of node: 027.0627 deg Eccentricity: 0.0008420 Arg of perigee: 167.7445 deg Mean anomaly: 192.3937 deg Mean motion: 14.29439830 rev/day Decay rate: 9.9e-07 rev/day^2 Epoch rev: 96414 Checksum: 337
Satellite: IO-26 Catalog number: 22826 Epoch time: 12081.90745710 Element set: 0827 Inclination: 098.5608 deg RA of node: 026.5095 deg Eccentricity: 0.0008958 Arg of perigee: 164.7193 deg Mean anomaly: 195.4260 deg Mean motion: 14.29711533 rev/day Decay rate: 1.33e-06 rev/day^2 Epoch rev: 96413 Checksum: 317
Satellite: GO-32 Catalog number: 25397 Epoch time: 12081.80280976 Element set: 0733 Inclination: 098.3549 deg RA of node: 064.8490 deg Eccentricity: 0.0001633 Arg of perigee: 144.8233 deg Mean anomaly: 215.3054 deg Mean motion: 14.23262595 rev/day Decay rate: -1.27e-06 rev/day^2 Epoch rev: 71159 Checksum: 306
Satellite: NO-44 Catalog number: 26931 Epoch time: 12082.65129997 Element set: 998 Inclination: 067.0553 deg RA of node: 343.3681 deg Eccentricity: 0.0006855 Arg of perigee: 276.7718 deg Mean anomaly: 083.2615 deg Mean motion: 14.29774661 rev/day Decay rate: 3.45e-06 rev/day^2 Epoch rev: 54687 Checksum: 356
Satellite: SO-50 Catalog number: 27607 Epoch time: 12081.82115404 Element set: 718 Inclination: 064.5571 deg RA of node: 200.6425 deg Eccentricity: 0.0085021 Arg of perigee: 265.7818 deg Mean anomaly: 093.3564 deg Mean motion: 14.72268798 rev/day Decay rate: 6.20e-06 rev/day^2 Epoch rev: 49710 Checksum: 303
Satellite: CO-55 Catalog number: 27844 Epoch time: 12080.06123566 Element set: 333 Inclination: 098.7046 deg RA of node: 089.7336 deg Eccentricity: 0.0010658 Arg of perigee: 117.9533 deg Mean anomaly: 242.2724 deg Mean motion: 14.20977122 rev/day Decay rate: -4.4e-07 rev/day^2 Epoch rev: 45223 Checksum: 297
Satellite: CO-57 Catalog number: 27848 Epoch time: 12082.58478963 Element set: 285 Inclination: 098.7141 deg RA of node: 091.5165 deg Eccentricity: 0.0010507 Arg of perigee: 114.8401 deg Mean anomaly: 245.3867 deg Mean motion: 14.20737890 rev/day Decay rate: 1.95e-06 rev/day^2 Epoch rev: 45253 Checksum: 328
Satellite: AO-51 Catalog number: 28375 Epoch time: 12081.79395557 Element set: 222 Inclination: 098.1364 deg RA of node: 051.1825 deg Eccentricity: 0.0083616 Arg of perigee: 306.5050 deg Mean anomaly: 052.8464 deg Mean motion: 14.40915588 rev/day Decay rate: 2.83e-06 rev/day^2 Epoch rev: 40618 Checksum: 311
Satellite: CP3 Catalog number: 31129 Epoch time: 12082.72825625 Element set: 121 Inclination: 097.8863 deg RA of node: 095.5927 deg Eccentricity: 0.0101699 Arg of perigee: 032.8990 deg Mean anomaly: 327.8443 deg Mean motion: 14.52945544 rev/day Decay rate: 5.97e-06 rev/day^2 Epoch rev: 26142 Checksum: 327
Satellite: CO-65 Catalog number: 32785 Epoch time: 12082.73833753 Element set: 260 Inclination: 097.8096 deg RA of node: 145.8098 deg Eccentricity: 0.0014564 Arg of perigee: 349.0047 deg Mean anomaly: 011.0843 deg Mean motion: 14.82772004 rev/day Decay rate: 1.050e-05 rev/day^2 Epoch rev: 21095 Checksum: 301
Satellite: PRISM Catalog number: 33493 Epoch time: 12082.73301633 Element set: 537 Inclination: 098.1573 deg RA of node: 221.3321 deg Eccentricity: 0.0018683 Arg of perigee: 214.0642 deg Mean anomaly: 145.9347 deg Mean motion: 14.83403983 rev/day Decay rate: 3.033e-05 rev/day^2 Epoch rev: 17093 Checksum: 281
Satellite: SOHLA-1 Catalog number: 33496 Epoch time: 12082.85875667 Element set: 681 Inclination: 098.0955 deg RA of node: 195.2148 deg Eccentricity: 0.0005973 Arg of perigee: 322.8075 deg Mean anomaly: 037.2707 deg Mean motion: 14.69898082 rev/day Decay rate: 1.89e-06 rev/day^2 Epoch rev: 16956 Checksum: 359
Satellite: SO-67 Catalog number: 35870 Epoch time: 12082.81280956 Element set: 794 Inclination: 097.2432 deg RA of node: 121.5975 deg Eccentricity: 0.0003750 Arg of perigee: 101.5953 deg Mean anomaly: 014.9714 deg Mean motion: 15.23079297 rev/day Decay rate: 3.771e-05 rev/day^2 Epoch rev: 13946 Checksum: 325
Satellite: TISAT-1 Catalog number: 36799 Epoch time: 12082.23195446 Element set: 812 Inclination: 098.0681 deg RA of node: 157.9321 deg Eccentricity: 0.0016429 Arg of perigee: 094.4580 deg Mean anomaly: 265.8482 deg Mean motion: 14.81647451 rev/day Decay rate: 1.952e-05 rev/day^2 Epoch rev: 9161 Checksum: 324
Satellite: STUDSAT Catalog number: 36801 Epoch time: 12081.88265004 Element set: 0370 Inclination: 098.0746 deg RA of node: 157.9468 deg Eccentricity: 0.0014074 Arg of perigee: 084.0761 deg Mean anomaly: 276.1965 deg Mean motion: 14.83464663 rev/day Decay rate: 5.729e-05 rev/day^2 Epoch rev: 09157 Checksum: 323
Satellite: FO-69 Catalog number: 37227 Epoch time: 12046.04422040 Element set: 0103 Inclination: 071.9672 deg RA of node: 223.6606 deg Eccentricity: 0.0017759 Arg of perigee: 195.0744 deg Mean anomaly: 164.9889 deg Mean motion: 14.76923927 rev/day Decay rate: 3.30e-06 rev/day^2 Epoch rev: 01791 Checksum: 314
Satellite: FO-70 Catalog number: 37380 Epoch time: 12046.50349291 Element set: 0106 Inclination: 071.9705 deg RA of node: 223.0530 deg Eccentricity: 0.0018152 Arg of perigee: 191.1227 deg Mean anomaly: 168.9536 deg Mean motion: 14.76682035 rev/day Decay rate: 3.31e-06 rev/day^2 Epoch rev: 01787 Checksum: 285
Satellite: ALMASAT-1 Catalog number: 38078 Epoch time: 12082.79039354 Element set: 54 Inclination: 069.4904 deg RA of node: 152.5198 deg Eccentricity: 0.0772678 Arg of perigee: 356.4992 deg Mean anomaly: 003.0878 deg Mean motion: 14.05809699 rev/day Decay rate: 1.7029e-04 rev/day^2 Epoch rev: 539 Checksum: 348
Satellite: XATCOBEO Catalog number: 38082 Epoch time: 12082.60459962 Element set: 105 Inclination: 069.4866 deg RA of node: 152.6899 deg Eccentricity: 0.0768425 Arg of perigee: 356.6634 deg Mean anomaly: 002.9502 deg Mean motion: 14.08364735 rev/day Decay rate: 3.9992e-04 rev/day^2 Epoch rev: 536 Checksum: 337
/EX SB KEPS @ AMSAT $ORB12082.W Orbital Elements 12082.WEATHER
HR AMSAT ORBITAL ELEMENTS FOR WEATHER SATELLITES FROM WA5QGD FORT WORTH,TX March 22, 2012 Send SUBSCRIBE KEPS/UNSUBSCRIBE KEPS to [email protected] only BID: ORB12082.W TO ALL RADIO AMATEURS BT
Satellite: NOAA-10 Catalog number: 16969 Epoch time: 12081.96812665 Element set: 0865 Inclination: 098.5929 deg RA of node: 112.5383 deg Eccentricity: 0.0013103 Arg of perigee: 128.0631 deg Mean anomaly: 232.1734 deg Mean motion: 14.27535687 rev/day Decay rate: 1.08e-06 rev/day^2 Epoch rev: 32742 Checksum: 307
